SLE2228 EPKK-DTTA

Flight info

Callsign SLE2228
Flight time 2h 25m
Altitude 39000
Route N0450F380 BABKO DCT XOMBA DCT KOPRY DCT KOREX DCT XAMIT/N0450F390 DCT ASPIR DCT NEKPI DCT RONAB DCT BULAR DCT ABDAB UA743 TUC
Aircraft A321/M-SDE3FGHIRWY/LB1

Departure

Time 2026-05-08 03:58
Airport Kraków John Paul II International Airport (EPKK)

Arrival

Time 2026-05-08 06:23
Airport Tunis Carthage International Airport (DTTA)
Time Latitude Longitude Altitude Speed Heading
2026-05-08 03:33 50.07487 19.79677 800 ft 0 kts 258°
2026-05-08 03:47 50.07489 19.79695 800 ft 3 kts 258°
2026-05-08 03:48 50.07492 19.79729 800 ft 4 kts 292°
2026-05-08 03:48 50.07477 19.79754 800 ft 4 kts 341°
2026-05-08 03:48 50.07462 19.79761 800 ft 1 kts 348°
2026-05-08 03:48 50.07460 19.79762 800 ft 0 kts 348°
2026-05-08 03:52 50.07473 19.79757 800 ft 6 kts 347°
2026-05-08 03:52 50.07537 19.79735 800 ft 9 kts 349°
2026-05-08 03:52 50.07617 19.79710 800 ft 11 kts 348°
2026-05-08 03:52 50.07680 19.79722 800 ft 8 kts 51°
2026-05-08 03:53 50.07701 19.79794 800 ft 7 kts 75°
2026-05-08 03:53 50.07712 19.79872 800 ft 8 kts 79°
2026-05-08 03:53 50.07725 19.79960 800 ft 9 kts 78°
2026-05-08 03:53 50.07739 19.80062 800 ft 10 kts 78°
2026-05-08 03:54 50.07753 19.80162 800 ft 8 kts 77°
2026-05-08 03:54 50.07762 19.80224 800 ft 4 kts 77°
2026-05-08 03:54 50.07770 19.80280 800 ft 8 kts 77°
2026-05-08 03:54 50.07796 19.80332 800 ft 5 kts 32°
2026-05-08 03:55 50.07837 19.80337 800 ft 8 kts 355°
2026-05-08 03:55 50.07845 19.80336 800 ft 0 kts 352°
2026-05-08 03:56 50.07855 19.80332 800 ft 8 kts 348°
2026-05-08 03:56 50.07950 19.80303 800 ft 13 kts 351°
2026-05-08 03:56 50.08011 19.80281 800 ft 0 kts 307°
2026-05-08 03:57 50.08015 19.80248 800 ft 9 kts 274°
2026-05-08 03:57 50.08014 19.80221 800 ft 0 kts 262°
2026-05-08 03:57 50.08013 19.80215 800 ft 10 kts 258°
2026-05-08 03:57 50.07946 19.79719 801 ft 82 kts 259°
2026-05-08 03:58 50.07786 19.78527 801 ft 141 kts 258°
2026-05-08 03:58 50.07548 19.76776 846 ft 184 kts 257°
2026-05-08 03:58 50.07277 19.74927 1781 ft 165 kts 257°
2026-05-08 03:58 50.07026 19.73183 2474 ft 166 kts 259°
2026-05-08 03:59 50.06772 19.71366 2805 ft 181 kts 259°
2026-05-08 03:59 50.06492 19.69341 2922 ft 203 kts 259°
2026-05-08 03:59 50.06176 19.67085 3046 ft 225 kts 257°
2026-05-08 03:59 50.05411 19.64911 3280 ft 239 kts 220°
2026-05-08 04:00 50.03870 19.63873 3534 ft 252 kts 185°
2026-05-08 04:00 50.02079 19.64089 3789 ft 264 kts 168°
2026-05-08 04:00 50.00281 19.64828 4304 ft 270 kts 163°
2026-05-08 04:00 49.98481 19.65696 5065 ft 273 kts 163°
2026-05-08 04:01 49.96648 19.66549 5813 ft 276 kts 165°
2026-05-08 04:01 49.94789 19.67336 6552 ft 279 kts 166°
2026-05-08 04:01 49.92897 19.68065 7262 ft 282 kts 168°
2026-05-08 04:01 49.90978 19.68756 7982 ft 284 kts 168°
2026-05-08 04:02 49.89018 19.69201 8692 ft 285 kts 182°
2026-05-08 04:02 49.87058 19.68818 9422 ft 285 kts 198°
2026-05-08 04:02 49.85239 19.67630 10136 ft 285 kts 212°
2026-05-08 04:02 49.83504 19.66109 10802 ft 287 kts 211°
2026-05-08 04:03 49.81756 19.64591 11471 ft 289 kts 211°
2026-05-08 04:03 49.78070 19.61410 12051 ft 324 kts 211°
2026-05-08 04:03 49.76041 19.59665 12298 ft 340 kts 210°
2026-05-08 04:04 49.73955 19.57876 12847 ft 346 kts 210°
2026-05-08 04:04 49.71842 19.56069 13485 ft 349 kts 210°
2026-05-08 04:04 49.69707 19.54246 14099 ft 352 kts 210°
2026-05-08 04:04 49.67557 19.52408 14688 ft 354 kts 210°
2026-05-08 04:05 49.65392 19.50559 15301 ft 357 kts 210°
2026-05-08 04:05 49.63213 19.48698 15902 ft 359 kts 210°
2026-05-08 04:05 49.61014 19.46824 16474 ft 362 kts 210°
2026-05-08 04:05 49.58782 19.44983 17077 ft 365 kts 208°
2026-05-08 04:06 49.56522 19.43187 17666 ft 368 kts 208°
2026-05-08 04:06 49.54234 19.41404 18247 ft 370 kts 208°
2026-05-08 04:06 49.51919 19.39610 18765 ft 373 kts 208°
2026-05-08 04:06 49.49598 19.37802 19265 ft 376 kts 208°
2026-05-08 04:07 49.47254 19.35974 19785 ft 378 kts 208°
2026-05-08 04:07 49.44904 19.34138 20293 ft 381 kts 208°
2026-05-08 04:07 49.42540 19.32287 20821 ft 383 kts 208°
2026-05-08 04:07 49.40154 19.30417 21339 ft 386 kts 208°
2026-05-08 04:08 49.37761 19.28541 21853 ft 388 kts 208°
2026-05-08 04:08 49.35353 19.26656 22359 ft 390 kts 208°
2026-05-08 04:08 49.32923 19.24758 22840 ft 392 kts 208°
2026-05-08 04:08 49.30486 19.22855 23308 ft 395 kts 208°
2026-05-08 04:09 49.28034 19.20946 23761 ft 397 kts 208°
2026-05-08 04:09 49.25561 19.19019 24172 ft 399 kts 208°
2026-05-08 04:09 49.23087 19.17088 24572 ft 400 kts 208°
2026-05-08 04:09 49.20595 19.15146 24979 ft 402 kts 208°
2026-05-08 04:10 49.18113 19.13217 25368 ft 404 kts 208°
2026-05-08 04:10 49.15604 19.11271 25727 ft 406 kts 208°
2026-05-08 04:10 49.13080 19.09321 26127 ft 407 kts 208°
2026-05-08 04:10 49.10546 19.07368 26506 ft 409 kts 208°
2026-05-08 04:11 49.08001 19.05403 26874 ft 411 kts 208°
2026-05-08 04:11 49.05447 19.03429 27250 ft 412 kts 208°
2026-05-08 04:11 49.02884 19.01453 27616 ft 414 kts 208°
2026-05-08 04:11 49.00303 18.99470 27970 ft 416 kts 208°
2026-05-08 04:12 48.97715 18.97482 28323 ft 418 kts 208°
2026-05-08 04:12 48.95117 18.95488 28658 ft 420 kts 208°
2026-05-08 04:12 48.92500 18.93476 29012 ft 421 kts 208°
2026-05-08 04:12 48.89883 18.91460 29343 ft 423 kts 208°
2026-05-08 04:13 48.87253 18.89442 29685 ft 425 kts 208°
2026-05-08 04:13 48.84600 18.87418 30016 ft 427 kts 208°
2026-05-08 04:13 48.81945 18.85396 30313 ft 428 kts 208°
2026-05-08 04:13 48.79280 18.83366 30589 ft 430 kts 208°
2026-05-08 04:14 48.76600 18.81327 30930 ft 429 kts 208°
2026-05-08 04:14 48.73937 18.79305 31319 ft 428 kts 208°
2026-05-08 04:14 48.71270 18.77283 31712 ft 427 kts 209°
2026-05-08 04:14 48.68626 18.75278 32074 ft 426 kts 209°
2026-05-08 04:15 48.65979 18.73272 32440 ft 425 kts 209°
2026-05-08 04:15 48.63342 18.71273 32816 ft 423 kts 209°
2026-05-08 04:15 48.60714 18.69284 33166 ft 422 kts 209°
2026-05-08 04:15 48.58091 18.67300 33514 ft 421 kts 209°
2026-05-08 04:16 48.56321 18.65965 33757 ft 420 kts 209°
2026-05-08 04:16 48.53708 18.64000 34095 ft 419 kts 209°
2026-05-08 04:16 48.51103 18.62041 34361 ft 419 kts 209°
2026-05-08 04:16 48.48526 18.60103 34574 ft 419 kts 209°
2026-05-08 04:17 48.45916 18.58141 34805 ft 419 kts 209°
2026-05-08 04:17 48.43309 18.56184 35041 ft 419 kts 209°
2026-05-08 04:17 48.40701 18.54229 35275 ft 419 kts 209°
2026-05-08 04:17 48.38090 18.52274 35511 ft 419 kts 209°
2026-05-08 04:18 48.35481 18.50323 35742 ft 419 kts 209°
2026-05-08 04:18 48.32862 18.48366 35971 ft 420 kts 209°
2026-05-08 04:18 48.30249 18.46418 36201 ft 420 kts 209°
2026-05-08 04:18 48.27634 18.44471 36423 ft 420 kts 209°
2026-05-08 04:19 48.25017 18.42524 36631 ft 420 kts 209°
2026-05-08 04:19 48.22404 18.40580 36834 ft 420 kts 209°
2026-05-08 04:19 48.19785 18.38636 37030 ft 420 kts 209°
2026-05-08 04:19 48.17169 18.36696 37212 ft 420 kts 209°
2026-05-08 04:20 48.14550 18.34754 37396 ft 420 kts 209°
2026-05-08 04:20 48.11932 18.32816 37570 ft 420 kts 209°
2026-05-08 04:20 48.09312 18.30878 37757 ft 420 kts 209°
2026-05-08 04:20 48.06693 18.28939 37924 ft 420 kts 209°
2026-05-08 04:21 48.04071 18.27003 38040 ft 420 kts 209°
2026-05-08 04:21 48.01448 18.25073 38049 ft 421 kts 209°
2026-05-08 04:21 47.96206 18.21218 38050 ft 420 kts 209°
2026-05-08 04:22 47.90961 18.17375 38052 ft 419 kts 209°
2026-05-08 04:22 47.85730 18.13542 38051 ft 418 kts 209°
2026-05-08 04:23 47.80509 18.09728 38051 ft 418 kts 209°
2026-05-08 04:23 47.75285 18.05928 38054 ft 417 kts 209°
2026-05-08 04:24 47.70092 18.02086 38070 ft 416 kts 210°
2026-05-08 04:24 47.64935 17.98198 38050 ft 416 kts 210°
2026-05-08 04:25 47.59769 17.94337 38054 ft 416 kts 209°
2026-05-08 04:25 47.54597 17.90501 38054 ft 415 kts 209°
2026-05-08 04:26 47.49431 17.86684 38069 ft 415 kts 209°
2026-05-08 04:26 47.44272 17.82865 38059 ft 414 kts 209°
2026-05-08 04:27 47.39117 17.79053 38073 ft 414 kts 209°
2026-05-08 04:27 47.33967 17.75255 38082 ft 414 kts 209°
2026-05-08 04:28 47.28817 17.71481 38078 ft 413 kts 209°
2026-05-08 04:28 47.23668 17.67721 38076 ft 413 kts 209°
2026-05-08 04:29 47.18534 17.63967 38076 ft 412 kts 209°
2026-05-08 04:29 47.13395 17.60226 38078 ft 412 kts 209°
2026-05-08 04:30 47.08267 17.56480 38077 ft 411 kts 209°
2026-05-08 04:30 47.03147 17.52751 38077 ft 411 kts 209°
2026-05-08 04:31 46.98032 17.49046 38078 ft 410 kts 209°
2026-05-08 04:31 46.92922 17.45350 38079 ft 409 kts 209°
2026-05-08 04:32 46.87819 17.41664 38078 ft 409 kts 209°
2026-05-08 04:32 46.82720 17.37994 38081 ft 408 kts 209°
2026-05-08 04:33 46.77599 17.34313 38085 ft 407 kts 209°
2026-05-08 04:33 46.72516 17.30663 38086 ft 407 kts 209°
2026-05-08 04:34 46.67433 17.27034 38085 ft 407 kts 209°
2026-05-08 04:34 46.62349 17.23414 38082 ft 407 kts 209°
2026-05-08 04:35 46.57271 17.19790 38085 ft 406 kts 209°
2026-05-08 04:35 46.52201 17.16173 38083 ft 406 kts 209°
2026-05-08 04:36 46.47127 17.12573 38085 ft 406 kts 209°
2026-05-08 04:36 46.42059 17.08987 38082 ft 405 kts 209°
2026-05-08 04:37 46.36998 17.05411 38086 ft 405 kts 209°
2026-05-08 04:37 46.31931 17.01833 38086 ft 405 kts 209°
2026-05-08 04:38 46.26865 16.98266 38086 ft 405 kts 209°
2026-05-08 04:38 46.21836 16.94621 38084 ft 403 kts 211°
2026-05-08 04:39 46.16988 16.90578 38085 ft 402 kts 213°
2026-05-08 04:39 46.12189 16.86420 38081 ft 402 kts 213°
2026-05-08 04:40 46.07359 16.82336 38086 ft 402 kts 212°
2026-05-08 04:40 46.02509 16.78311 38087 ft 402 kts 212°
2026-05-08 04:41 45.97656 16.74306 38085 ft 402 kts 212°
2026-05-08 04:41 45.92812 16.70308 38085 ft 402 kts 212°
2026-05-08 04:42 45.87956 16.66305 38079 ft 402 kts 212°
2026-05-08 04:42 45.83098 16.62297 38080 ft 403 kts 212°
2026-05-08 04:43 45.78236 16.58289 38093 ft 403 kts 212°
2026-05-08 04:43 45.73378 16.54294 38089 ft 403 kts 212°
2026-05-08 04:44 45.68494 16.50313 38085 ft 404 kts 212°
2026-05-08 04:44 45.63616 16.46334 38085 ft 404 kts 212°
2026-05-08 04:45 45.58738 16.42343 38083 ft 404 kts 212°
2026-05-08 04:45 45.53858 16.38365 38084 ft 404 kts 212°
2026-05-08 04:46 45.48973 16.34390 38080 ft 404 kts 212°
2026-05-08 04:46 45.44093 16.30437 38084 ft 404 kts 212°
2026-05-08 04:47 45.39208 16.26493 38081 ft 403 kts 212°
2026-05-08 04:47 45.34330 16.22550 38081 ft 403 kts 212°
2026-05-08 04:48 45.29454 16.18623 38078 ft 403 kts 212°
2026-05-08 04:48 45.24564 16.14680 38080 ft 407 kts 212°
2026-05-08 04:49 45.19585 16.10682 38079 ft 415 kts 212°
2026-05-08 04:49 45.14540 16.06643 38079 ft 418 kts 212°
2026-05-08 04:50 45.09474 16.02592 38082 ft 418 kts 212°
2026-05-08 04:50 45.04399 15.98553 38084 ft 419 kts 212°
2026-05-08 04:51 44.99332 15.94512 38084 ft 418 kts 212°
2026-05-08 04:51 44.94255 15.90473 38083 ft 418 kts 212°
2026-05-08 04:52 44.89183 15.86451 38086 ft 419 kts 212°
2026-05-08 04:52 44.84100 15.82430 38086 ft 419 kts 212°
2026-05-08 04:53 44.79012 15.78427 38089 ft 419 kts 212°
2026-05-08 04:53 44.73869 15.74541 38084 ft 420 kts 209°
2026-05-08 04:54 44.69488 15.71575 38093 ft 421 kts 208°
2026-05-08 04:54 44.63287 15.67481 38088 ft 422 kts 208°
2026-05-08 04:55 44.58884 15.64520 38084 ft 422 kts 208°
2026-05-08 04:55 44.53603 15.60923 38080 ft 422 kts 208°
2026-05-08 04:56 44.48278 15.57299 38076 ft 423 kts 208°
2026-05-08 04:56 44.43004 15.53732 38061 ft 415 kts 208°
2026-05-08 04:57 44.37869 15.50273 38055 ft 407 kts 208°
2026-05-08 04:57 44.32770 15.46835 38040 ft 407 kts 208°
2026-05-08 04:58 44.27671 15.43403 38034 ft 407 kts 208°
2026-05-08 04:58 44.22569 15.39982 38030 ft 407 kts 208°
2026-05-08 04:59 44.17466 15.36572 38027 ft 407 kts 208°
2026-05-08 04:59 44.12365 15.33170 38047 ft 406 kts 208°
2026-05-08 05:00 44.09817 15.31467 38231 ft 406 kts 208°
2026-05-08 05:00 44.07271 15.29765 38407 ft 406 kts 208°
2026-05-08 05:00 44.04720 15.28063 38583 ft 406 kts 208°
2026-05-08 05:00 44.02171 15.26366 38718 ft 407 kts 208°
2026-05-08 05:01 43.99623 15.24670 38836 ft 407 kts 208°
2026-05-08 05:01 43.97073 15.22975 38980 ft 406 kts 208°
2026-05-08 05:01 43.91959 15.19579 39023 ft 408 kts 208°
2026-05-08 05:02 43.86841 15.16189 39016 ft 408 kts 208°
2026-05-08 05:02 43.81721 15.12819 39020 ft 408 kts 208°
2026-05-08 05:03 43.76598 15.09452 39018 ft 407 kts 208°
2026-05-08 05:03 43.71484 15.06085 39015 ft 408 kts 208°
2026-05-08 05:04 43.66351 15.02713 39014 ft 408 kts 208°
2026-05-08 05:04 43.61218 14.99338 39013 ft 409 kts 208°
2026-05-08 05:05 43.56070 14.95969 39018 ft 410 kts 208°
2026-05-08 05:05 43.50911 14.92606 39018 ft 410 kts 208°
2026-05-08 05:06 43.45748 14.89245 39024 ft 411 kts 208°
2026-05-08 05:06 43.40571 14.85872 39025 ft 411 kts 208°
2026-05-08 05:07 43.35389 14.82515 39020 ft 412 kts 208°
2026-05-08 05:07 43.30297 14.78951 39016 ft 409 kts 217°
2026-05-08 05:08 43.25645 14.74459 39014 ft 409 kts 217°
2026-05-08 05:08 43.20989 14.69972 39019 ft 409 kts 217°
2026-05-08 05:09 43.16326 14.65482 39013 ft 410 kts 217°
2026-05-08 05:09 43.11661 14.61005 39017 ft 410 kts 217°
2026-05-08 05:10 43.04641 14.54286 39020 ft 411 kts 217°
2026-05-08 05:11 42.99952 14.49817 39015 ft 411 kts 217°
2026-05-08 05:11 42.95258 14.45346 39011 ft 411 kts 217°
2026-05-08 05:12 42.90567 14.40883 39010 ft 411 kts 217°
2026-05-08 05:12 42.85869 14.36423 39006 ft 412 kts 217°
2026-05-08 05:13 42.81167 14.31967 39012 ft 412 kts 217°
2026-05-08 05:13 42.76457 14.27515 39013 ft 412 kts 217°
2026-05-08 05:14 42.71739 14.23068 39012 ft 413 kts 217°
2026-05-08 05:14 42.67016 14.18619 39015 ft 413 kts 217°
2026-05-08 05:15 42.62298 14.14174 39019 ft 413 kts 217°
2026-05-08 05:15 42.57572 14.09738 39018 ft 413 kts 217°
2026-05-08 05:16 42.52847 14.05306 39019 ft 414 kts 217°
2026-05-08 05:16 42.48104 14.00881 39017 ft 414 kts 217°
2026-05-08 05:17 42.43356 13.96463 39014 ft 414 kts 217°
2026-05-08 05:17 42.38609 13.92041 39017 ft 414 kts 217°
2026-05-08 05:18 42.33902 13.87647 39018 ft 414 kts 217°
2026-05-08 05:18 42.29145 13.83231 39014 ft 415 kts 217°
2026-05-08 05:19 42.24386 13.78824 39016 ft 415 kts 217°
2026-05-08 05:19 42.19649 13.74450 39017 ft 415 kts 217°
2026-05-08 05:20 42.14753 13.70307 39014 ft 417 kts 213°
2026-05-08 05:20 42.09684 13.66486 39008 ft 418 kts 212°
2026-05-08 05:21 42.04596 13.62688 39004 ft 418 kts 212°
2026-05-08 05:21 41.99589 13.58848 39002 ft 418 kts 213°
2026-05-08 05:22 41.94544 13.54938 38996 ft 418 kts 213°
2026-05-08 05:22 41.89520 13.51065 38990 ft 418 kts 213°
2026-05-08 05:23 41.84468 13.47184 38983 ft 419 kts 213°
2026-05-08 05:23 41.79411 13.43312 38976 ft 419 kts 213°
2026-05-08 05:24 41.74351 13.39449 38967 ft 419 kts 213°
2026-05-08 05:24 41.69282 13.35584 38964 ft 419 kts 213°
2026-05-08 05:25 41.64220 13.31716 38955 ft 419 kts 213°
2026-05-08 05:25 41.59148 13.27864 38949 ft 419 kts 212°
2026-05-08 05:26 41.54071 13.24009 38942 ft 420 kts 213°
2026-05-08 05:26 41.48992 13.20147 38940 ft 420 kts 213°
2026-05-08 05:27 41.43904 13.16293 38939 ft 421 kts 213°
2026-05-08 05:27 41.38809 13.12455 38939 ft 421 kts 213°
2026-05-08 05:28 41.33715 13.08620 38940 ft 421 kts 213°
2026-05-08 05:28 41.28722 13.04647 38936 ft 420 kts 215°
2026-05-08 05:29 41.23806 13.00460 38941 ft 419 kts 216°
2026-05-08 05:29 41.18889 12.96279 38944 ft 419 kts 216°
2026-05-08 05:30 41.13943 12.92159 38953 ft 419 kts 215°
2026-05-08 05:30 41.08991 12.88063 38945 ft 419 kts 215°
2026-05-08 05:31 41.04041 12.83974 38944 ft 419 kts 216°
2026-05-08 05:31 40.99101 12.79887 38943 ft 419 kts 216°
2026-05-08 05:32 40.94155 12.75803 38944 ft 419 kts 216°
2026-05-08 05:32 40.89209 12.71735 38944 ft 419 kts 216°
2026-05-08 05:33 40.85065 12.68332 38946 ft 419 kts 216°
2026-05-08 05:33 40.80116 12.64271 38946 ft 419 kts 216°
2026-05-08 05:34 40.75170 12.60217 38950 ft 418 kts 216°
2026-05-08 05:34 40.70231 12.56173 38949 ft 418 kts 216°
2026-05-08 05:35 40.65281 12.52128 38948 ft 418 kts 216°
2026-05-08 05:35 40.60339 12.48096 38947 ft 418 kts 216°
2026-05-08 05:36 40.55398 12.44074 38948 ft 417 kts 216°
2026-05-08 05:36 40.50456 12.40060 38948 ft 417 kts 216°
2026-05-08 05:37 40.45522 12.36066 38949 ft 417 kts 216°
2026-05-08 05:37 40.40592 12.32072 38950 ft 416 kts 216°
2026-05-08 05:38 40.35674 12.28086 38953 ft 416 kts 216°
2026-05-08 05:38 40.30751 12.24120 38954 ft 415 kts 216°
2026-05-08 05:39 40.25828 12.20172 38933 ft 415 kts 216°
2026-05-08 05:39 40.20925 12.16228 38946 ft 414 kts 216°
2026-05-08 05:40 40.16021 12.12286 38954 ft 413 kts 216°
2026-05-08 05:40 40.11120 12.08357 38951 ft 413 kts 216°
2026-05-08 05:41 40.06219 12.04437 38952 ft 413 kts 216°
2026-05-08 05:41 40.01329 12.00534 38953 ft 412 kts 216°
2026-05-08 05:42 39.96435 11.96628 38963 ft 412 kts 216°
2026-05-08 05:42 39.91537 11.92733 38954 ft 412 kts 216°
2026-05-08 05:43 39.86634 11.88847 38961 ft 413 kts 216°
2026-05-08 05:43 39.81639 11.85126 38956 ft 414 kts 214°
2026-05-08 05:44 39.76579 11.81546 38949 ft 415 kts 213°
2026-05-08 05:44 39.71513 11.77948 38948 ft 415 kts 214°
2026-05-08 05:45 39.66463 11.74321 38957 ft 415 kts 214°
2026-05-08 05:45 39.61426 11.70694 38958 ft 415 kts 214°
2026-05-08 05:46 39.56376 11.67066 38956 ft 415 kts 214°
2026-05-08 05:46 39.51318 11.63445 38956 ft 415 kts 214°
2026-05-08 05:47 39.46259 11.59831 38961 ft 415 kts 214°
2026-05-08 05:47 39.41195 11.56221 38961 ft 415 kts 214°
2026-05-08 05:48 39.36137 11.52607 38962 ft 416 kts 214°
2026-05-08 05:48 39.31076 11.48993 38961 ft 416 kts 215°
2026-05-08 05:49 39.26007 11.45398 38962 ft 416 kts 215°
2026-05-08 05:49 39.20935 11.41806 38960 ft 416 kts 215°
2026-05-08 05:50 39.15866 11.38215 38964 ft 416 kts 215°
2026-05-08 05:50 39.10799 11.34632 38963 ft 416 kts 215°
2026-05-08 05:51 39.05731 11.31047 38967 ft 416 kts 215°
2026-05-08 05:51 39.00658 11.27469 38967 ft 416 kts 215°
2026-05-08 05:52 38.95579 11.23902 38970 ft 416 kts 215°
2026-05-08 05:52 38.90497 11.20347 38968 ft 416 kts 215°
2026-05-08 05:52 38.87952 11.18564 38711 ft 418 kts 216°
2026-05-08 05:53 38.85388 11.16759 37770 ft 421 kts 216°
2026-05-08 05:53 38.82828 11.14964 37127 ft 417 kts 216°
2026-05-08 05:53 38.80283 11.13187 36852 ft 415 kts 216°
2026-05-08 05:54 38.75269 11.09695 35684 ft 412 kts 217°
2026-05-08 05:54 38.72771 11.07955 35110 ft 405 kts 218°
2026-05-08 05:54 38.70301 11.06235 34909 ft 401 kts 218°
2026-05-08 05:55 38.65456 11.02858 34130 ft 395 kts 219°
2026-05-08 05:55 38.63055 11.01183 33561 ft 387 kts 219°
2026-05-08 05:55 38.60690 10.99539 33275 ft 389 kts 219°
2026-05-08 05:55 38.58313 10.97883 32885 ft 386 kts 219°
2026-05-08 05:56 38.55972 10.96256 32309 ft 382 kts 219°
2026-05-08 05:56 38.53651 10.94648 31896 ft 378 kts 219°
2026-05-08 05:56 38.51357 10.93067 31831 ft 372 kts 219°
2026-05-08 05:56 38.49095 10.91507 31144 ft 368 kts 219°
2026-05-08 05:57 38.46868 10.89974 30702 ft 358 kts 220°
2026-05-08 05:57 38.44669 10.88455 30424 ft 359 kts 220°
2026-05-08 05:57 38.42493 10.86945 29795 ft 354 kts 220°
2026-05-08 05:57 38.40352 10.85464 29562 ft 350 kts 220°
2026-05-08 05:58 38.38216 10.83979 29006 ft 350 kts 220°
2026-05-08 05:58 38.36076 10.82492 28245 ft 349 kts 219°
2026-05-08 05:58 38.33933 10.81007 27978 ft 352 kts 219°
2026-05-08 05:59 38.29444 10.78477 27838 ft 359 kts 209°
2026-05-08 05:59 38.27064 10.77545 26969 ft 357 kts 208°
2026-05-08 05:59 38.24701 10.76643 26142 ft 352 kts 208°
2026-05-08 05:59 38.22378 10.75765 25621 ft 341 kts 208°
2026-05-08 06:00 38.20123 10.74910 25649 ft 340 kts 208°
2026-05-08 06:00 38.17847 10.74029 25315 ft 342 kts 208°
2026-05-08 06:00 38.15588 10.73154 24644 ft 335 kts 208°
2026-05-08 06:00 38.13371 10.72296 24445 ft 335 kts 208°
2026-05-08 06:01 38.11138 10.71424 24217 ft 336 kts 208°
2026-05-08 06:01 38.08899 10.70552 23972 ft 336 kts 208°
2026-05-08 06:01 38.06674 10.69694 23682 ft 334 kts 208°
2026-05-08 06:01 38.04458 10.68842 23282 ft 331 kts 207°
2026-05-08 06:02 38.02263 10.68000 22719 ft 328 kts 207°
2026-05-08 06:02 38.00099 10.67173 21965 ft 323 kts 207°
2026-05-08 06:02 37.97962 10.66352 21132 ft 318 kts 207°
2026-05-08 06:02 37.95873 10.65549 20607 ft 307 kts 207°
2026-05-08 06:03 37.93831 10.64763 20322 ft 307 kts 207°
2026-05-08 06:03 37.91794 10.63975 20043 ft 306 kts 207°
2026-05-08 06:03 37.89766 10.63193 19739 ft 304 kts 207°
2026-05-08 06:03 37.87748 10.62418 19381 ft 302 kts 207°
2026-05-08 06:04 37.85745 10.61646 18960 ft 300 kts 207°
2026-05-08 06:04 37.83761 10.60879 18428 ft 296 kts 208°
2026-05-08 06:04 37.81805 10.60121 17654 ft 293 kts 207°
2026-05-08 06:04 37.79871 10.59371 17024 ft 285 kts 207°
2026-05-08 06:05 37.77994 10.58649 16749 ft 282 kts 207°
2026-05-08 06:05 37.76116 10.57918 16492 ft 283 kts 207°
2026-05-08 06:05 37.74236 10.57184 16248 ft 282 kts 207°
2026-05-08 06:05 37.72361 10.56454 16002 ft 281 kts 206°
2026-05-08 06:06 37.70491 10.55729 15749 ft 281 kts 206°
2026-05-08 06:06 37.68621 10.55007 15503 ft 280 kts 206°
2026-05-08 06:06 37.66761 10.54291 15260 ft 279 kts 206°
2026-05-08 06:06 37.64907 10.53579 15016 ft 278 kts 206°
2026-05-08 06:07 37.63059 10.52870 14773 ft 277 kts 205°
2026-05-08 06:07 37.61216 10.52164 14534 ft 276 kts 205°
2026-05-08 06:07 37.59380 10.51460 14295 ft 275 kts 205°
2026-05-08 06:07 37.57566 10.50767 14071 ft 269 kts 205°
2026-05-08 06:08 37.55780 10.50082 13866 ft 265 kts 205°
2026-05-08 06:08 37.54055 10.49425 13603 ft 252 kts 205°
2026-05-08 06:08 37.52431 10.48813 13330 ft 236 kts 206°
2026-05-08 06:08 37.50891 10.48227 13114 ft 228 kts 206°
2026-05-08 06:09 37.49378 10.47642 12850 ft 227 kts 206°
2026-05-08 06:09 37.47874 10.47057 12586 ft 226 kts 206°
2026-05-08 06:09 37.46376 10.46476 12322 ft 225 kts 206°
2026-05-08 06:09 37.44886 10.45900 12077 ft 224 kts 206°
2026-05-08 06:10 37.43397 10.45326 11829 ft 223 kts 206°
2026-05-08 06:10 37.41917 10.44754 11575 ft 222 kts 206°
2026-05-08 06:10 37.40447 10.44182 11328 ft 220 kts 207°
2026-05-08 06:10 37.39003 10.43564 10966 ft 216 kts 208°
2026-05-08 06:11 37.37633 10.42957 10523 ft 203 kts 208°
2026-05-08 06:11 37.36749 10.42562 10237 ft 196 kts 208°
2026-05-08 06:11 37.35480 10.41993 9810 ft 192 kts 208°
2026-05-08 06:11 37.34230 10.41431 9339 ft 190 kts 208°
2026-05-08 06:12 37.32985 10.40871 8876 ft 190 kts 208°
2026-05-08 06:12 37.31747 10.40314 8415 ft 187 kts 207°
2026-05-08 06:12 37.30547 10.39779 7966 ft 180 kts 207°
2026-05-08 06:12 37.29378 10.39257 7524 ft 178 kts 207°
2026-05-08 06:13 37.28216 10.38738 7102 ft 176 kts 207°
2026-05-08 06:13 37.27065 10.38224 6697 ft 176 kts 207°
2026-05-08 06:13 37.25910 10.37708 6261 ft 176 kts 206°
2026-05-08 06:13 37.24755 10.37191 5799 ft 176 kts 206°
2026-05-08 06:14 37.23600 10.36674 5349 ft 176 kts 206°
2026-05-08 06:14 37.22480 10.36178 4895 ft 164 kts 206°
2026-05-08 06:14 37.21425 10.35712 4443 ft 159 kts 206°
2026-05-08 06:14 37.20389 10.35252 3985 ft 158 kts 206°
2026-05-08 06:15 37.19355 10.34790 3535 ft 158 kts 205°
2026-05-08 06:15 37.18325 10.34331 3083 ft 157 kts 205°
2026-05-08 06:15 37.17295 10.33876 2630 ft 156 kts 205°
2026-05-08 06:15 37.16272 10.33425 2174 ft 155 kts 206°
2026-05-08 06:16 37.15263 10.32980 1999 ft 153 kts 206°
2026-05-08 06:16 37.14256 10.32534 1999 ft 154 kts 206°
2026-05-08 06:16 37.13242 10.32084 1999 ft 155 kts 206°
2026-05-08 06:16 37.12226 10.31634 2001 ft 155 kts 206°
2026-05-08 06:17 37.10200 10.30738 2001 ft 154 kts 206°
2026-05-08 06:17 37.09191 10.30294 2001 ft 154 kts 206°
2026-05-08 06:17 37.08181 10.29848 1998 ft 155 kts 206°
2026-05-08 06:18 37.07167 10.29401 2000 ft 155 kts 206°
2026-05-08 06:18 37.06150 10.28952 2002 ft 155 kts 206°
2026-05-08 06:18 37.05138 10.28498 2000 ft 154 kts 208°
2026-05-08 06:18 37.04126 10.28038 2001 ft 156 kts 204°
2026-05-08 06:19 37.03076 10.27667 2001 ft 157 kts 201°
2026-05-08 06:19 37.02012 10.27340 2001 ft 157 kts 200°
2026-05-08 06:19 37.00945 10.27034 2001 ft 158 kts 199°
2026-05-08 06:19 36.99873 10.26735 2003 ft 158 kts 199°
2026-05-08 06:20 36.98800 10.26439 2003 ft 158 kts 199°
2026-05-08 06:20 36.97727 10.26145 2003 ft 158 kts 199°
2026-05-08 06:20 36.96651 10.25850 1955 ft 159 kts 199°
2026-05-08 06:20 36.95572 10.25555 1798 ft 159 kts 199°
2026-05-08 06:21 36.94507 10.25265 1609 ft 154 kts 198°
2026-05-08 06:21 36.93465 10.24981 1417 ft 152 kts 198°
2026-05-08 06:21 36.92439 10.24705 1208 ft 151 kts 196°
2026-05-08 06:21 36.91402 10.24483 994 ft 151 kts 195°
2026-05-08 06:22 36.90375 10.24236 839 ft 150 kts 197°
2026-05-08 06:22 36.89366 10.23912 677 ft 149 kts 196°
2026-05-08 06:22 36.88383 10.23617 433 ft 143 kts 195°
2026-05-08 06:22 36.87425 10.23345 169 ft 140 kts 193°
2026-05-08 06:23 36.86478 10.23096 44 ft 136 kts 192°
2026-05-08 06:23 36.85684 10.22857 30 ft 91 kts 192°
2026-05-08 06:23 36.85311 10.22751 34 ft 29 kts 192°
2026-05-08 06:23 36.85145 10.22697 35 ft 21 kts 195°
2026-05-08 06:24 36.84998 10.22656 33 ft 21 kts 192°
2026-05-08 06:24 36.84948 10.22563 32 ft 11 kts 289°
2026-05-08 06:24 36.84961 10.22507 31 ft 0 kts 287°
2026-05-08 06:26 36.84963 10.22501 31 ft 5 kts 287°
2026-05-08 06:26 36.84974 10.22461 30 ft 0 kts 291°
2026-05-08 06:27 36.84975 10.22459 30 ft 1 kts 291°
2026-05-08 06:27 36.84977 10.22450 31 ft 4 kts 291°
2026-05-08 06:27 36.84956 10.22383 31 ft 14 kts 209°
2026-05-08 06:27 36.84812 10.22341 30 ft 27 kts 192°
2026-05-08 06:28 36.84618 10.22288 30 ft 28 kts 192°
2026-05-08 06:28 36.84500 10.22207 30 ft 21 kts 268°
2026-05-08 06:28 36.84527 10.22107 30 ft 9 kts 308°
2026-05-08 06:28 36.84604 10.22086 30 ft 10 kts
2026-05-08 06:29 36.84669 10.22094 30 ft 3 kts 323°
2026-05-08 06:29 36.84667 10.22055 30 ft 3 kts 253°
2026-05-08 06:29 36.84656 10.22024 30 ft 3 kts 245°
2026-05-08 06:29 36.84651 10.22010 30 ft 1 kts 245°
2026-05-08 06:30 36.84648 10.22002 30 ft 0 kts 245°
2026-05-08 06:30 36.84647 10.21999 30 ft 0 kts 245°